User: anonymous   Login
Location: Vancouver
(49.2500°N, 123.1330°W)
Time: 19:14:52
(UTC-08:00)
Language:

YAOGAN 6 - Orbit

View from above orbital plane
View from above orbital plane
View from above satellite
View from above satellite

Ground track
Ground track

The orbit data is extracted from the following two-line orbital elements,

1 34839U 09021A   16039.91285818  .00002465  00000-0  10240-3 0  9997
2 34839  97.2149 104.5608 0028038 272.6643 191.6822 15.24388064377250
Epoch (UTC): 08 February 2016 21:54:30
Eccentricity: 0.0028038
inclination: 97.2149°
perigee height: 473 km
apogee height: 512 km
right ascension of ascending node: 104.5608°
argument of perigee: 272.6643°
revolutions per day: 15.24388064
mean anomaly at epoch: 191.6822°
orbit number at epoch: 37725

The dashed part of the orbit path shows where the satellite is in the earth's shadow,  

DLR